TimeEST,TemperatureF,Dew PointF,Humidity,Sea Level PressureIn,VisibilityMPH,Wind Direction,Wind SpeedMPH,Gust SpeedMPH,PrecipitationIn,Events,Conditions,WindDirDegrees,DateUTC
12:56 AM,43.0,30.0,60,30.16,-9999.0,NW,13.8,-,N/A,,Clear,310,2013-03-08 05:56:00
1:56 AM,43.0,28.9,58,30.15,-9999.0,NW,13.8,-,N/A,,Clear,310,2013-03-08 06:56:00
2:56 AM,41.0,28.9,62,30.14,-9999.0,WNW,10.4,-,N/A,,Clear,300,2013-03-08 07:56:00
3:56 AM,41.0,28.9,62,30.14,-9999.0,NW,12.7,-,N/A,,Clear,310,2013-03-08 08:56:00
4:56 AM,39.9,28.9,65,30.15,-9999.0,NW,12.7,-,N/A,,Clear,310,2013-03-08 09:56:00
5:56 AM,39.0,28.9,67,30.16,-9999.0,NW,12.7,-,N/A,,Clear,310,2013-03-08 10:56:00
6:56 AM,41.0,28.9,62,30.17,-9999.0,NW,13.8,24.2,N/A,,Clear,320,2013-03-08 11:56:00
7:56 AM,43.0,30.0,60,30.19,-9999.0,NNW,21.9,29.9,N/A,,Clear,330,2013-03-08 12:56:00
8:56 AM,45.0,28.9,53,30.18,-9999.0,NNW,20.7,27.6,N/A,,Clear,340,2013-03-08 13:56:00
9:56 AM,46.0,28.0,50,30.17,-9999.0,NW,20.7,33.4,N/A,,Clear,320,2013-03-08 14:56:00
10:56 AM,46.9,27.0,46,30.16,-9999.0,NNW,18.4,31.1,N/A,,Clear,340,2013-03-08 15:56:00
11:56 AM,48.9,27.0,43,30.14,-9999.0,NNW,20.7,34.5,N/A,,Clear,330,2013-03-08 16:56:00
12:56 PM,50.0,28.0,43,30.10,-9999.0,NNW,23.0,29.9,N/A,,Partly Cloudy,330,2013-03-08 17:56:00
1:56 PM,51.1,28.0,41,30.09,-9999.0,NNW,21.9,29.9,N/A,,Clear,330,2013-03-08 18:56:00
2:56 PM,52.0,28.0,40,30.09,-9999.0,NW,19.6,31.1,N/A,,Clear,320,2013-03-08 19:56:00
3:56 PM,53.1,30.0,41,30.09,-9999.0,NNW,23.0,28.8,N/A,,Clear,330,2013-03-08 20:56:00
4:56 PM,53.1,28.0,38,30.11,-9999.0,NW,20.7,28.8,N/A,,Clear,320,2013-03-08 21:56:00
5:56 PM,51.1,30.9,46,30.13,-9999.0,NW,15.0,23.0,N/A,,Clear,320,2013-03-08 22:56:00
6:56 PM,48.9,35.1,59,30.15,-9999.0,NNW,10.4,-,N/A,,Clear,340,2013-03-08 23:56:00
7:56 PM,48.9,34.0,56,30.17,-9999.0,NNW,12.7,-,N/A,,Clear,330,2013-03-09 00:56:00
8:56 PM,48.9,34.0,56,30.19,-9999.0,NNW,15.0,-,N/A,,Clear,340,2013-03-09 01:56:00
9:56 PM,48.0,33.1,56,30.20,-9999.0,North,17.3,-,N/A,,Clear,350,2013-03-09 02:56:00
10:56 PM,46.9,32.0,56,30.19,-9999.0,NNW,16.1,26.5,N/A,,Clear,340,2013-03-09 03:56:00
11:56 PM,46.9,32.0,56,30.20,-9999.0,NNW,18.4,26.5,N/A,,Clear,330,2013-03-09 04:56:00